| time (UTC) | temp F | wind direction | speed knots | gust knots | rain 1hr in | rain 24hr in | rain mn in | humidity % | barometer mb |
| 20260502163538 | 68 | 218 | 7.0 | 5.2 | 0.00 | 0.00 | 0.00 | 57 | 1016.0 |
| 20260502162537 | 73 | 209 | 4.3 | 0.9 | 0.00 | 0.00 | 0.00 | 78 | 1016.0 |
| 20260502161537 | 71 | 209 | 4.3 | 0.9 | 0.00 | 0.00 | 0.00 | 78 | 1016.0 |
| 20260502160536 | 69 | 209 | 4.3 | 0.9 | 0.00 | 0.00 | 0.00 | 78 | 1016.0 |
| 20260502151533 | 63 | 209 | 4.3 | 1.7 | 0.00 | 0.00 | 0.00 | 78 | 1016.0 |
| 20260502150533 | 69 | 80 | 0.9 | 0.9 | 0.00 | 0.00 | 0.00 | 91 | 1016.0 |
| 20260502130525 | 61 | 61 | 0.9 | 2.6 | 0.00 | 0.00 | 0.00 | 89 | 1017.0 |
| 20260502123523 | 55 | 61 | 0.9 | 2.6 | 0.00 | 0.00 | 0.00 | 89 | 1017.0 |
| 20260502122522 | 53 | 61 | 0.9 | 2.6 | 0.00 | 0.00 | 0.00 | 89 | 1017.0 |
| 20260502121521 | 51 | 61 | 1.7 | 2.6 | 0.00 | 0.00 | 0.00 | 89 | 1017.0 |
| 20260502120521 | 55 | 61 | 0.9 | 2.6 | 0.00 | 0.00 | 0.00 | 90 | 1017.0 |
| 20260502115520 | 53 | 61 | 0.9 | 2.6 | 0.00 | 0.00 | 0.00 | 90 | 1017.0 |
| 20260502114520 | 51 | 61 | 1.7 | 2.6 | 0.00 | 0.00 | 0.00 | 90 | 1017.0 |
| 20260502113519 | 51 | 61 | 1.7 | 2.6 | 0.00 | 0.00 | 0.00 | 90 | 1017.0 |
| 20260502112518 | 58 | 73 | 0.9 | 2.6 | 0.00 | 0.00 | 0.00 | 91 | 1016.0 |
| 20260502111517 | 56 | 73 | 0.9 | 2.6 | 0.00 | 0.00 | 0.00 | 91 | 1016.0 |
| 20260502110516 | 56 | 73 | 0.9 | 2.6 | 0.00 | 0.00 | 0.00 | 91 | 1016.0 |
| 20260502105516 | 54 | 73 | 1.7 | 2.6 | 0.00 | 0.00 | 0.00 | 91 | 1016.0 |
| 20260502104515 | 54 | 73 | 1.7 | 2.6 | 0.00 | 0.00 | 0.00 | 91 | 1016.0 |
| 20260502103514 | 58 | 66 | 0.9 | 2.6 | 0.00 | 0.00 | 0.00 | 90 | 1016.0 |
| 20260502102514 | 56 | 66 | 0.9 | 2.6 | 0.00 | 0.00 | 0.00 | 90 | 1016.0 |
| 20260502101513 | 54 | 66 | 0.9 | 2.6 | 0.00 | 0.00 | 0.00 | 90 | 1016.0 |
| 20260502100512 | 58 | 66 | 0.9 | 2.6 | 0.00 | 0.00 | 0.00 | 91 | 1016.0 |
| 20260502091510 | 54 | 47 | 0.9 | 1.7 | 0.00 | 0.00 | 0.00 | 90 | 1016.0 |
| 20260502090509 | 58 | 47 | 0.9 | 0.9 | 0.00 | 0.00 | 0.00 | 92 | 1016.0 |
| 20260502071502 | 55 | 249 | 0.0 | 1.7 | 0.00 | 0.00 | 0.00 | 92 | 1017.0 |
| 20260502070501 | 59 | 249 | 0.0 | 1.7 | 0.00 | 0.00 | 0.00 | 94 | 1017.0 |
| 20260502065500 | 57 | 249 | 0.0 | 1.7 | 0.00 | 0.00 | 0.00 | 94 | 1017.0 |
| 20260502064500 | 55 | 249 | 0.0 | 1.7 | 0.00 | 0.00 | 0.00 | 94 | 1017.0 |
| 20260502063459 | 59 | 249 | 0.0 | 1.7 | 0.00 | 0.00 | 0.00 | 91 | 1017.0 |
| 20260502062459 | 57 | 226 | 0.0 | 0.9 | 0.00 | 0.00 | 0.00 | 91 | 1017.0 |
| 20260502061458 | 55 | 226 | 0.0 | 0.9 | 0.00 | 0.00 | 0.00 | 91 | 1017.0 |
| 20260502060457 | 59 | 226 | 0.0 | 0.9 | 0.00 | 0.00 | 0.00 | 92 | 1017.0 |
| 20260502055457 | 57 | 226 | 0.0 | 0.9 | 0.00 | 0.00 | 0.00 | 92 | 1017.0 |
| 20260502054456 | 55 | 226 | 0.0 | 0.9 | 0.00 | 0.00 | 0.00 | 92 | 1017.0 |
| 20260502053455 | 60 | 226 | 0.0 | 0.9 | 0.00 | 0.00 | 0.00 | 90 | 1017.0 |
| 20260502052455 | 58 | 142 | 0.0 | 0.9 | 0.00 | 0.00 | 0.00 | 90 | 1017.0 |
| 20260502051454 | 56 | 142 | 0.0 | 0.9 | 0.00 | 0.00 | 0.00 | 90 | 1017.0 |
| 20260502050453 | 59 | 142 | 0.0 | 0.9 | 0.00 | 0.00 | 0.00 | 91 | 1017.0 |
| 20260502045453 | 57 | 142 | 0.0 | 0.9 | 0.00 | 0.00 | 0.00 | 91 | 1017.0 |
| 20260502044452 | 59 | 142 | 0.0 | 0.9 | 0.00 | 0.00 | 0.00 | 90 | 1017.0 |
| 20260502043452 | 57 | 142 | 0.0 | 0.9 | 0.00 | 0.00 | 0.00 | 90 | 1017.0 |
| 20260502042451 | 60 | 90 | 0.0 | 0.9 | 0.00 | 0.00 | 0.00 | 88 | 1017.0 |
| 20260502041450 | 58 | 90 | 0.0 | 0.9 | 0.00 | 0.00 | 0.00 | 88 | 1017.0 |
| 20260502040450 | 60 | 90 | 0.0 | 0.9 | 0.00 | 0.00 | 0.00 | 88 | 1017.0 |
| 20260502035449 | 58 | 90 | 0.0 | 0.9 | 0.00 | 0.00 | 0.00 | 88 | 1017.0 |
| 20260502034448 | 58 | 90 | 0.0 | 0.9 | 0.00 | 0.00 | 0.00 | 88 | 1017.0 |
| 20260502033448 | 61 | 92 | 0.9 | 0.9 | 0.00 | 0.00 | 0.00 | 87 | 1017.0 |
| 20260502032447 | 59 | 92 | 1.7 | 0.9 | 0.00 | 0.00 | 0.00 | 87 | 1016.0 |
| 20260502031446 | 59 | 92 | 1.7 | 0.9 | 0.00 | 0.00 | 0.00 | 87 | 1016.0 |
| 20260502030446 | 61 | 92 | 0.9 | 0.9 | 0.00 | 0.00 | 0.00 | 88 | 1016.0 |
| 20260502025445 | 59 | 92 | 1.7 | 0.9 | 0.00 | 0.00 | 0.00 | 88 | 1016.0 |
| 20260502024444 | 62 | 92 | 0.9 | 0.9 | 0.00 | 0.00 | 0.00 | 88 | 1016.0 |
| 20260502023444 | 60 | 92 | 1.7 | 0.9 | 0.00 | 0.00 | 0.00 | 88 | 1016.0 |
| 20260502022443 | 60 | 63 | 1.7 | 0.9 | 0.00 | 0.00 | 0.00 | 88 | 1015.0 |
| 20260502021442 | 60 | 63 | 1.7 | 0.9 | 0.00 | 0.00 | 0.00 | 89 | 1015.0 |
| 20260502020442 | 60 | 63 | 1.7 | 0.9 | 0.00 | 0.00 | 0.00 | 89 | 1015.0 |
| 20260502015441 | 60 | 63 | 1.7 | 0.9 | 0.00 | 0.00 | 0.00 | 90 | 1015.0 |
| 20260502014440 | 60 | 63 | 1.7 | 0.9 | 0.00 | 0.00 | 0.00 | 89 | 1015.0 |
| 20260502013440 | 60 | 63 | 1.7 | 0.9 | 0.00 | 0.00 | 0.00 | 89 | 1015.0 |
| 20260502012439 | 62 | 122 | 0.0 | 0.9 | 0.00 | 0.00 | 0.00 | 84 | 1015.0 |
| 20260502011438 | 60 | 122 | 0.0 | 0.9 | 0.00 | 0.00 | 0.00 | 84 | 1014.0 |
| 20260502010438 | 60 | 122 | 0.0 | 0.9 | 0.00 | 0.00 | 0.00 | 84 | 1014.0 |
| 20260502005437 | 62 | 122 | 0.0 | 0.9 | 0.00 | 0.00 | 0.00 | 85 | 1014.0 |
| 20260502004437 | 60 | 122 | 0.0 | 0.9 | 0.00 | 0.00 | 0.00 | 85 | 1014.0 |
| 20260502003436 | 63 | 204 | 0.9 | 0.9 | 0.00 | 0.00 | 0.00 | 82 | 1014.0 |
| 20260502002436 | 61 | 204 | 0.9 | 0.9 | 0.00 | 0.00 | 0.00 | 82 | 1013.0 |
| 20260502001435 | 61 | 204 | 0.9 | 0.9 | 0.00 | 0.00 | 0.00 | 82 | 1013.0 |
| 20260502000434 | 63 | 204 | 0.9 | 0.9 | 0.00 | 0.00 | 0.00 | 85 | 1013.0 |
| 20260501235434 | 61 | 204 | 0.9 | 0.9 | 0.00 | 0.00 | 0.00 | 85 | 1013.0 |
| 20260501234433 | 63 | 204 | 0.9 | 0.9 | 0.00 | 0.00 | 0.00 | 82 | 1013.0 |
| 20260501233433 | 69 | 204 | 0.9 | 0.9 | 0.00 | 0.00 | 0.00 | 82 | 1013.0 |
| 20260501232432 | 70 | 215 | 2.6 | 1.7 | 0.00 | 0.00 | 0.00 | 75 | 1013.0 |
| 20260501231432 | 70 | 215 | 2.6 | 1.7 | 0.00 | 0.00 | 0.00 | 79 | 1013.0 |
| 20260501230431 | 65 | 215 | 2.6 | 1.7 | 0.00 | 0.00 | 0.00 | 79 | 1013.0 |
| 20260501225431 | 65 | 215 | 2.6 | 1.7 | 0.00 | 0.00 | 0.00 | 83 | 1013.0 |
| 20260501224430 | 65 | 215 | 2.6 | 1.7 | 0.00 | 0.00 | 0.00 | 81 | 1013.0 |
| 20260501223428 | 65 | 215 | 2.6 | 1.7 | 0.00 | 0.00 | 0.00 | 81 | 1013.0 |
| 20260501222428 | 65 | 211 | 4.3 | 3.5 | 0.00 | 0.00 | 0.00 | 73 | 1013.0 |
| 20260501221427 | 65 | 211 | 4.3 | 3.5 | 0.00 | 0.00 | 0.00 | 74 | 1013.0 |
| 20260501220426 | 65 | 211 | 4.3 | 3.5 | 0.00 | 0.00 | 0.00 | 74 | 1013.0 |
| 20260501215426 | 65 | 211 | 4.3 | 3.5 | 0.00 | 0.00 | 0.00 | 78 | 1013.0 |
| 20260501214425 | 65 | 211 | 4.3 | 3.5 | 0.00 | 0.00 | 0.00 | 78 | 1013.0 |
| 20260501213425 | 65 | 211 | 4.3 | 3.5 | 0.00 | 0.00 | 0.00 | 78 | 1013.0 |
| 20260501212424 | 65 | 216 | 4.3 | 4.3 | 0.00 | 0.00 | 0.00 | 69 | 1013.0 |
| 20260501211423 | 65 | 216 | 4.3 | 4.3 | 0.00 | 0.00 | 0.00 | 73 | 1013.0 |
| 20260501210423 | 65 | 216 | 4.3 | 4.3 | 0.00 | 0.00 | 0.00 | 73 | 1013.0 |
| 20260501205422 | 65 | 216 | 4.3 | 4.3 | 0.00 | 0.00 | 0.00 | 79 | 1013.0 |
| 20260501204421 | 65 | 216 | 4.3 | 4.3 | 0.00 | 0.00 | 0.00 | 77 | 1013.0 |
| 20260501203421 | 67 | 214 | 6.1 | 6.1 | 0.00 | 0.00 | 0.00 | 67 | 1013.0 |
| 20260501202420 | 65 | 214 | 6.1 | 6.1 | 0.00 | 0.00 | 0.00 | 67 | 1013.0 |
| 20260501201419 | 69 | 214 | 6.1 | 6.1 | 0.00 | 0.00 | 0.00 | 69 | 1014.0 |
| 20260501200419 | 69 | 214 | 6.1 | 6.1 | 0.00 | 0.00 | 0.00 | 69 | 1014.0 |
| 20260501195418 | 69 | 214 | 6.1 | 6.1 | 0.00 | 0.00 | 0.00 | 75 | 1014.0 |
| 20260501194418 | 76 | 214 | 6.1 | 6.1 | 0.00 | 0.00 | 0.00 | 72 | 1014.0 |
| 20260501193417 | 76 | 214 | 6.1 | 6.1 | 0.00 | 0.00 | 0.00 | 72 | 1014.0 |
| 20260501192416 | 77 | 215 | 7.8 | 5.2 | 0.00 | 0.00 | 0.00 | 63 | 1014.0 |
| 20260501191416 | 77 | 215 | 7.8 | 5.2 | 0.00 | 0.00 | 0.00 | 64 | 1014.0 |
| 20260501190415 | 77 | 215 | 7.8 | 5.2 | 0.00 | 0.00 | 0.00 | 64 | 1014.0 |
| 20260501185415 | 77 | 215 | 7.8 | 5.2 | 0.00 | 0.00 | 0.00 | 70 | 1014.0 |
| 20260501184414 | 76 | 215 | 7.8 | 5.2 | 0.00 | 0.00 | 0.00 | 70 | 1014.0 |
| 20260501183414 | 73 | 215 | 7.8 | 5.2 | 0.00 | 0.00 | 0.00 | 70 | 1014.0 |
| 20260501182413 | 75 | 215 | 8.7 | 6.1 | 0.00 | 0.00 | 0.00 | 64 | 1014.0 |
| 20260501181413 | 73 | 215 | 8.7 | 6.1 | 0.00 | 0.00 | 0.00 | 68 | 1014.0 |
| 20260501180412 | 73 | 215 | 8.7 | 6.1 | 0.00 | 0.00 | 0.00 | 68 | 1014.0 |
| 20260501175411 | 72 | 215 | 8.7 | 6.1 | 0.00 | 0.00 | 0.00 | 68 | 1015.0 |
| 20260501174411 | 72 | 215 | 8.7 | 6.1 | 0.00 | 0.00 | 0.00 | 68 | 1015.0 |
| 20260501173410 | 72 | 215 | 8.7 | 6.1 | 0.00 | 0.00 | 0.00 | 68 | 1015.0 |
| 20260501172410 | 72 | 222 | 7.0 | 4.3 | 0.00 | 0.00 | 0.00 | 71 | 1015.0 |